Regional Weather Roundup
Issued by NWS Northern Indiana

Home | Current Version | Previous Version | Graphics & Text | Print | Product List | Glossary On
Versions: 1 2 3 4 5 6 7 8 9 10 11 12 13 14 15 16 17 18 19 20 21 22 23 24 25 26 27 28 29 30 31 32 33 34 35 36 37 38 39 40 41 42 43 44 45 46 47 48 49 50
000
ASUS43 KIWX 250010
RWRIWX

KIWX WEATHER ROUNDUP
NATIONAL WEATHER SERVICE NORTHERN INDIANA
800 PM EDT THU JUL 24 2014

NOTE: "FAIR" INDICATES FEW OR NO CLOUDS BELOW 12,000 FEET WITH NO
SIGNIFICANT WEATHER AND/OR OBSTRUCTIONS TO VISIBILITY.

* THESE STATIONS ARE NOT UNDER NWS QUALITY CONTROL. THEY ALSO MAY NOT
  REPORT WEATHER SUCH AS PRECIPITATION OR FOG.

INZ001>027-250100-
NORTHERN INDIANA

CITY           SKY/WX    TMP DP  RH WIND       PRES   REMARKS
GARY*          MOSUNNY   68  50  52 NE7       30.10S
VALPARAISO     SUNNY     68  51  54 N5        30.09F
6HR MIN TEMP:  68; 6HR MAX TEMP:  74;

MICHIGAN CITY* SUNNY     64  50  59 N5        30.09F
LAPORTE*       SUNNY     66  50  55 N7        30.09F
6HR MIN TEMP:  66; 6HR MAX TEMP:  72;

KNOX*          SUNNY     69  54  58 N8        30.08S
6HR MIN TEMP:  44; 6HR MAX TEMP:  86;

SOUTH BEND     SUNNY     69  51  52 NW8       30.09S
6HR MIN TEMP:  69; 6HR MAX TEMP:  77;

ELKHART*       SUNNY     72  54  53 N6        30.08
GOSHEN         CLOUDY    74  53  48 E5        30.07R
6HR MIN TEMP:  71; 6HR MAX TEMP:  76;

MONTICELLO*    MOSUNNY   70  58  64 CALM      30.06F
6HR MIN TEMP:  70; 6HR MAX TEMP:  75;

LOGANSPORT*    SUNNY     68  54  60 CALM      30.08S
ROCHESTER*     SUNNY     73  50  43 CALM      30.07F
WARSAW*        MOSUNNY   72  52  49 CALM      30.07S
ANGOLA*        SUNNY     73  52  46 CALM      30.07S
FORT WAYNE     PTSUNNY   72  53  51 S5        30.07R
6HR MIN TEMP:  70; 6HR MAX TEMP:  77;

HUNTINGTON*    PTSUNNY   73  55  54 SE3       30.05S
6HR MIN TEMP:  71; 6HR MAX TEMP:  77;

PERU/GRISSOM   MOSUNNY   73  54  51 NW6       30.07R
6HR MIN TEMP:  71; 6HR MAX TEMP:  76;

MARION*        CLOUDY    72  51  47 CALM      30.08R
6HR MIN TEMP:  32; 6HR MAX TEMP:  89;


$$
INZ028>050-250100-
CENTRAL INDIANA

CITY           SKY/WX    TMP DP  RH WIND       PRES   REMARKS
LAFAYETTE      MOSUNNY   73  51  46 VRB3      30.06S
6HR MIN TEMP:  72; 6HR MAX TEMP:  76;

KOKOMO*        SUNNY     73  54  49 N6        30.06S
6HR MIN TEMP:  73; 6HR MAX TEMP:  77;

MUNCIE*        SUNNY     72  50  45 NE7       30.07R
6HR MIN TEMP:  71; 6HR MAX TEMP:  76;

INDIANAPOLIS   MOSUNNY   73  51  46 NE8       30.06R
6HR MIN TEMP:  72; 6HR MAX TEMP:  76;


$$
MIZ043>046-050>051-056>058-064>065-071>073-077>080-250100-
SOUTHWEST LOWER MICHIGAN

CITY           SKY/WX    TMP DP  RH WIND       PRES   REMARKS
BATTLE CREEK   SUNNY     70  51  51 N5        30.09R
6HR MIN TEMP:  69; 6HR MAX TEMP:  76;

BENTON HARBOR  SUNNY     64  51  62 VRB5      30.09F
6HR MIN TEMP:  64; 6HR MAX TEMP:  69;

COLDWATER*     PTSUNNY   74  51  45 W3        30.08R
6HR MIN TEMP:  71; 6HR MAX TEMP:  75;

HILLSDALE*     MOSUNNY   70  51  52 NW3       30.09R
6HR MIN TEMP:  69; 6HR MAX TEMP:  74;

HOLLAND        SUNNY     68  46  45 NW6       30.10S
6HR MIN TEMP:  68; 6HR MAX TEMP:  75;

GRAND RAPIDS   MOSUNNY   72  52  49 W13       30.08R
6HR MIN TEMP:  69; 6HR MAX TEMP:  76;

KALAMAZOO      MOSUNNY   72  53  51 NW12      30.08R
6HR MIN TEMP:  72; 6HR MAX TEMP:  76;

STURGIS*         N/A     72  54  53 NW3       30.07S
THREE RIVERS*  FAIR      73  53  48 CALM      30.08S

$$
OHZ001>008-015>018-024>025-250100-
NORTHWEST OHIO

CITY           SKY/WX    TMP DP  RH WIND       PRES   REMARKS
WAUSEON*       MOCLDY    70  54  56 N3        30.05S
DEFIANCE       CLOUDY    74  50  42 CALM      30.06R
6HR MIN TEMP:  73; 6HR MAX TEMP:  77;

FINDLAY        CLEAR     71  51  49 E7        30.05R
6HR MIN TEMP:  71; 6HR MAX TEMP:  75;

TOLEDO EXPRESS PTCLDY    69  52  54 S3        30.05R
6HR MIN TEMP:  69; 6HR MAX TEMP:  76;

TOLEDO METCALF CLEAR     71  49  45 E5        30.06R
6HR MIN TEMP:  71; 6HR MAX TEMP:  75;

LIMA           PTCLDY    70  52  52 NE7       30.07R
6HR MIN TEMP:  70; 6HR MAX TEMP:  75;


$$
&&



USA.gov is the U.S. government's official web portal to all federal, state and local government web resources and services.